Miscellaneous Local Product
Issued by NWS Hastings, NE

Home | Current Version | Previous Version | Graphics & Text | Print | Product List | Glossary On
Versions: 1 2 3 4 5 6 7 8 9 10 11 12 13 14 15 16 17 18 19 20 21 22 23 24 25 26 27 28 29 30 31 32 33 34 35 36 37 38 39 40 41 42 43 44 45 46 47 48 49 50
000
AXUS43 KGID 281002
MISGRI

GID CWA HOURLY WEATHER ROUNDUP
NATIONAL WEATHER SERVICE HASTINGS NE
500 AM CDT MON JUL 28 2014

NOTE: "FAIR" INDICATES FEW OR NO CLOUDS BELOW 12,000 FEET WITH NO
SIGNIFICANT WEATHER AND/OR OBSTRUCTIONS TO VISIBILITY.

...SOUTH CENTRAL NEBRASKA...

CITY           SKY/WX    TMP DP  RH WIND       PRES   REMARKS
GRAND ISLAND   CLEAR     58  55  90 N6        30.28S
HASTINGS       CLEAR     58  54  86 N5        30.28R
KEARNEY        CLEAR     55  54  94 MISG      30.30R
ORD            CLEAR     53  51  93 N3        30.29S
YORK             N/A     55  55 100 N5        30.26F
AURORA         CLEAR     57  57 100 N7        30.27S
LEXINGTON      CLEAR     55  53  92 CALM      30.31S
HOLDREGE       CLEAR     57  55  92 CALM      30.30R
HEBRON         CLEAR     60  55  83 CALM      30.25S

...NEBRASKA PANHANDLE...

CITY           SKY/WX    TMP DP  RH WIND       PRES   REMARKS
CHADRON        CLEAR     57  51  80 N3        30.34S
ALLIANCE       CLEAR     54  48  80 E5        30.34S
SCOTTSBLUFF    CLEAR     61  50  67 E10       30.32S
SIDNEY         CLEAR     59  48  67 SE8       30.35S

...WESTERN AND NORTH CENTRAL NEBRASKA...

CITY           SKY/WX    TMP DP  RH WIND       PRES   REMARKS
VALENTINE      PTCLDY    52  49  89 NW3       30.34R
AINSWORTH      CLEAR     53  52  97 CALM      30.33S
ONEILL         CLEAR     53  50  89 NW5       30.30S
BROKEN BOW     CLEAR     54  51  90 N3        30.31R
IMPERIAL       PTCLDY    57  50  77 CALM      30.32S
NORTH PLATTE   CLEAR     52  49  89 CALM      30.32R
MCCOOK         PTCLDY    59  54  83 NE5       30.30R

...EASTERN NEBRASKA...

CITY           SKY/WX    TMP DP  RH WIND       PRES   REMARKS
NORFOLK        CLEAR     55  52  89 N6        30.25F
SO SIOUX CITY  CLEAR     59  54  83 N6        30.22S
ALBION         CLEAR     55  52  88 CALM      30.28S
OMAHA EPPLEY   CLEAR     58  54  86 N6        30.22R
OFFUTT AFB     CLEAR     61  59  91 NW5       30.20R
MILLARD        CLEAR     62  56  81 NW6       30.21S
LINCOLN        CLEAR     61  54  77 NW6       30.24S
NEBRASKA CITY  CLEAR     57  57  99 NW5       30.22R
BEATRICE       CLEAR     56  55  95 N6        30.23S
FALLS CITY     NOT AVBL

...NORTHERN KANSAS...

CITY           SKY/WX    TMP DP  RH WIND       PRES   REMARKS
GOODLAND       CLOUDY    62  53  72 S7        30.32S
HILL CITY      PTCLDY    61  54  77 N3        30.27R
NORTON         SUNNY     59  52  77 NE5       30.28R
PHILLIPSBURG   CLEAR     63  55  77 N5        30.27R
SMITH CENTER   CLEAR     61  55  82 NE9       30.27R
HAYS           CLEAR     64  52  63 NE9       30.25R
RUSSELL        CLEAR     62  53  72 N7        30.23R
CONCORDIA      CLEAR     62  58  86 NE7       30.24R
SALINA         PTCLDY    64  56  75 NW6       30.22R
TOPEKA         CLEAR     64  58  80 N7        30.18S



USA.gov is the U.S. government's official web portal to all federal, state and local government web resources and services.